This is the latest recevied weather packets stored in our database for station/object IZ5MMH-14. If no packets are shown the sender has not sent any weather packets the latest 10 day(s).
| Time | Temp. | Humidity | Pressure | Rain* | Wind** | Luminosity | Snow |
|---|---|---|---|---|---|---|---|
| 1777914000 | 22.22° C | 81% | 1017.3 hPa | - | - | - | - |
| 1777913400 | 22.78° C | 80% | 1017.2 hPa | - | - | - | - |
| 1777912800 | 22.22° C | 80% | 1017.3 hPa | - | - | - | - |
| 1777912199 | 22.22° C | 79% | 1017.3 hPa | - | - | - | - |
| 1777911600 | 22.22° C | 82% | 1017.3 hPa | - | - | - | - |
| 1777911000 | 22.22° C | 84% | 1017.3 hPa | - | - | - | - |
| 1777910400 | 22.78° C | 82% | 1017.5 hPa | - | - | - | - |
| 1777909800 | 22.22° C | 85% | 1017.5 hPa | - | - | - | - |
| 1777909200 | 22.78° C | 83% | 1017.4 hPa | - | - | - | - |
| 1777908600 | 22.78° C | 81% | 1017.5 hPa | - | - | - | - |
| 1777908000 | 22.78° C | 83% | 1017.5 hPa | - | - | - | - |
| 1777907400 | 22.78° C | 83% | 1017.6 hPa | - | - | - | - |
| 1777906800 | 22.78° C | 84% | 1017.6 hPa | - | - | - | - |
| 1777906200 | 22.22° C | 84% | 1017.6 hPa | - | - | - | - |
| 1777905600 | 22.78° C | 83% | 1017.7 hPa | - | - | - | - |
| 1777905000 | 22.78° C | 84% | 1017.8 hPa | - | - | - | - |
| 1777904400 | 22.78° C | 84% | 1017.9 hPa | - | - | - | - |
| 1777903799 | 22.78° C | 81% | 1017.9 hPa | - | - | - | - |
| 1777903200 | 22.78° C | 79% | 1017.9 hPa | - | - | - | - |
| 1777902600 | 22.78° C | 78% | 1017.9 hPa | - | - | - | - |
| 1777902000 | 22.78° C | 79% | 1018 hPa | - | - | - | - |
| 1777901400 | 22.78° C | 78% | 1017.9 hPa | - | - | - | - |
| 1777900800 | 22.78° C | 78% | 1018 hPa | - | - | - | - |
| 1777900200 | 23.33° C | 78% | 1018.1 hPa | - | - | - | - |
| 1777899600 | 23.33° C | 77% | 1018.2 hPa | - | - | - | - |
* Rain since midnight (hover to see other rain measurements)
** Current wind speed in m/s (hover to see current wind gust speed)